710  
SXUS52 KJAX 182013  
OSOJAX  
OTHER SURFACE OBSERVATIONS  
NATIONAL WEATHER SERVICE JACKSONVILLE FL  
400 PM EDT WED JUL 18 2018  
 
FLZ020>025-030>033-035>038-040-182100-   
..FLORIDA
 
 
 
CITY SKY/WX TMP DP RH WIND PRES REMARKS  
CECIL FIELD SUNNY 86 79 79 S7 29.96F  
HERLONG FIELD NOT AVBL  
FERNANDINA BCH NOT AVBL  
LAKE CITY CLOUDY 79 75 89 CALM 29.97S  
JUNIPER SPGS NOT AVBL  
BUNNELL NOT AVBL  
KEYSTONE HGTS N/A N/A N/A N/A MISG N/A  

 
 
GAZ132>136-149>154-162>166-182100-   
..GEORGIA
 
 
 
CITY SKY/WX TMP DP RH WIND PRES REMARKS  
JESUP NOT AVBL  
HOMERVILLE FAIR 91 72 52 W8 29.92F  
SWAINSBORO FAIR 93 72 49 W9 29.90F HX 100  
CORDELE NOT AVBL  
EASTMAN FAIR 96 59 29 W3 29.93F  

 
 
PLEASE NOTE: THESE OBSERVATIONS ARE NOT QUALITY CONTROLLED AND MAY  
NOT BE AVAILABLE AT ALL TIMES.  

 
 
 
CLICK HERE TO GO TO PREVIOUS BULLETINS.

The Nexlab FL Page
The Nexlab GA Page Main Text Page